Wind_Speed
16 10 21 26 22 13 12 4 9 5 7 6 6 6 10 11 6 14 19 19 20 24 17 22 27 31 33 31 30 27 22 20 20 24 28 28 29 28 26 29 26 27 24 25
7 26 19 10 14 15 13 6 4 2 4 5 4 5 8 4 6 13 20 20 21 22 26 26 28 31 30 30 32 30 26 25 24 28 31 30 32 32 29 27 29 29 32 31
18 5 17 16 17 19 19 14 5 5 2 1 2 5 5 5 6 12 17 19 18 21 24 24 30 32 31 30 31 32 32 28 26 28 28 30 30 30 30 28 25 26 26 30
16 14 24 22 21 17 18 10 6 6 4 3 2 4 4 3 6 6 16 17 18 19 25 24 27 31 31 29 31 33 31 28 28 27 27 28 29 27 25 24 21 21 21 24
12 12 16 22 22 19 7 15 11 4 4 2 2 4 7 1 3 7 3 11 3 12 18 24 26 28 30 29 28 28 28 28 27 27 27 28 28 27 25 19 13 12 14 16
12 17 15 19 19 17 13 13 8 4 4 4 6 5 6 1 3 7 4 8 8 3 7 16 24 28 29 29 25 24 22 18 16 18 17 18 20 20 17 17 15 12 16 16
17 18 15 16 16 17 18 16 4 1 2 5 9 6 5 3 4 5 2 5 9 10 7 8 17 23 24 23 23 20 16 14 13 11 10 10 9 7 4 4 7 7 8 9
16 14 16 17 20 13 13 11 5 6 5 4 1 7 4 2 4 5 6 9 16 18 15 12 11 14 14 13 13 15 12 10 10 11 11 9 6 5 1 3 5 8 10 12
12 8 17 13 10 15 23 10 8 6 1 6 4 2 2 4 5 7 9 15 20 21 23 23 22 21 19 19 20 18 19 20 16 13 8 4 1 1 4 8 11 13 11 10
5 5 18 12 12 9 23 12 9 1 5 5 3 5 6 5 7 8 10 18 23 29 33 34 35 34 33 31 28 25 21 18 13 9 6 4 2 2 5 7 8 8 10 12
3 4 1 14 6 18 10 12 5 5 4 5 5 3 4 6 6 12 11 19 29 35 37 36 34 31 28 25 22 20 17 16 13 11 9 6 4 2 2 4 6 6 8 11
3 2 2 5 7 12 4 13 6 5 2 2 3 3 3 7 7 12 16 19 28 34 34 32 32 32 29 27 24 22 18 15 13 11 7 6 4 3 4 4 7 10 12 15
4 2 5 9 7 7 7 5 5 5 4 5 5 3 3 7 7 13 23 24 28 34 36 36 34 32 29 25 22 19 15 12 9 5 3 2 1 3 5 8 10 13 14 17
3 3 4 4 7 10 13 13 8 6 4 5 2 11 9 11 12 12 20 26 27 31 34 32 29 26 24 20 17 14 12 9 7 5 3 1 3 6 9 12 15 17 18 19
4 3 1 10 16 16 11 15 13 8 6 7 9 15 18 14 15 17 24 27 29 27 29 26 25 22 19 15 13 10 8 7 6 5 5 7 9 12 14 16 17 18 17 16
3 2 1 5 10 9 8 13 15 7 8 9 16 10 11 17 26 25 24 26 25 24 25 22 19 17 14 12 10 8 7 6 8 9 11 13 14 14 16 17 17 16 14 14
5 3 4 3 3 5 6 2 4 5 1 18 8 10 19 17 16 22 23 26 25 23 21 18 15 12 9 6 5 5 6 8 10 12 14 14 14 13 14 14 11 9 10 11
3 4 3 3 3 3 3 2 8 17 9 12 22 20 18 22 26 26 21 30 23 21 18 14 10 6 4 5 8 10 11 13 14 14 14 13 12 11 11 7 6 9 10 13
4 3 4 4 3 3 4 5 3 4 8 12 24 21 29 35 37 22 19 22 22 17 13 9 5 3 6 9 11 12 12 12 12 12 12 8 7 8 6 5 8 9 10 12
6 5 3 2 4 3 1 3 15 1 7 14 19 21 22 28 11 5 14 17 17 13 8 4 3 6 9 10 9 9 11 10 9 10 8 5 5 6 3 6 6 7 8 10
3 2 1 5 3 3 1 4 11 4 7 22 27 29 18 5 9 25 19 16 12 7 4 3 4 8 9 9 9 8 8 7 9 9 8 6 5 4 1 4 3 5 7 9
2 2 2 2 3 4 14 7 3 13 27 29 23 25 36 36 35 22 17 13 9 6 6 8 7 9 10 10 8 8 8 9 10 8 6 6 5 4 2 1 3 5 6 9
2 3 4 5 3 8 18 19 23 26 33 27 35 31 41 37 28 21 18 14 12 10 10 9 10 10 11 11 11 10 11 10 11 8 7 5 4 3 4 2 3 4 5 9
4 6 4 3 8 11 22 29 35 36 38 35 34 35 32 34 25 22 18 16 14 14 14 13 12 12 13 12 12 12 13 12 11 9 7 4 3 1 4 1 2 4 4 8
4 4 6 8 9 23 27 25 35 38 38 35 30 28 28 27 24 21 19 17 17 15 14 13 13 14 14 13 12 13 14 13 12 10 8 4 1 2 2 2 3 3 6 9
6 4 1 3 11 20 13 20 26 39 36 32 32 30 26 24 25 21 21 17 16 15 14 13 14 13 12 12 12 13 14 14 15 13 10 5 1 3 3 3 4 5 6 7
Wind_Direction
179 187 205 198 206 218 192 155 185 187 195 149 208 204 244 262 231 244 248 241 227 217 216 219 221 226 232 235 232 228 225 227 238 233 222 227 227 224 236 240 237 259 252 252
167 218 200 189 192 204 232 192 188 252 145 142 186 228 233 228 222 223 234 236 227 229 225 220 219 223 223 228 229 230 240 245 240 235 233 233 233 234 246 250 257 263 265 266
198 240 178 190 185 194 211 207 168 131 64 52 114 301 238 243 221 238 238 241 242 234 221 215 215 221 226 226 228 233 242 241 236 235 239 241 240 245 253 251 268 264 256 255
223 219 181 189 203 185 205 175 157 149 94 187 114 263 278 237 258 219 228 225 234 238 232 228 218 215 220 225 229 230 234 238 233 234 239 245 252 254 261 268 276 274 273 277
207 181 198 200 199 183 198 162 179 143 134 104 284 81 265 341 237 228 61 89 135 236 236 229 220 221 221 228 232 235 237 236 237 238 242 247 253 262 262 274 277 293 280 282
219 181 196 197 197 180 156 160 145 73 107 255 194 141 280 93 298 309 1 58 72 111 216 218 222 228 226 228 230 234 232 230 234 238 245 243 242 252 258 258 244 273 272 274
196 223 201 166 179 195 162 154 119 121 188 216 179 144 231 320 324 251 292 52 81 90 107 176 201 214 222 222 225 228 220 210 213 227 226 231 239 254 267 271 274 307 296 295
188 199 207 185 185 174 183 162 148 154 153 155 191 185 264 35 47 66 88 86 78 83 97 111 143 176 185 184 186 196 182 171 155 151 140 136 137 156 111 332 332 333 319 309
187 217 179 190 158 161 187 195 152 106 168 115 166 63 61 71 63 73 86 87 84 84 102 108 119 127 130 134 132 140 139 130 125 117 110 109 108 323 311 312 310 311 314 303
222 129 177 191 164 165 181 155 159 18 147 126 209 167 170 166 139 116 106 99 94 99 106 111 113 115 117 119 120 121 124 123 116 122 130 145 172 261 289 299 294 287 285 290
315 112 341 176 185 170 148 170 136 136 130 142 139 218 200 156 153 135 118 108 109 110 113 112 111 111 111 111 110 107 105 108 108 102 98 89 71 28 0 342 312 307 295 290
157 124 114 177 174 186 134 169 120 133 172 89 115 156 94 126 127 136 114 106 115 119 118 115 111 109 108 105 103 100 96 95 91 81 67 53 36 13 345 323 312 315 310 310
199 124 129 117 89 210 212 181 142 112 103 186 127 183 124 126 119 132 117 113 114 120 120 118 116 112 110 108 107 104 101 89 81 69 52 28 349 317 309 311 309 312 314 313
200 143 188 178 129 135 189 182 166 136 120 159 193 136 152 141 139 119 111 115 115 119 122 119 116 112 108 105 99 94 90 84 77 65 53 3 331 321 321 314 313 317 319 320
207 168 207 130 137 148 152 172 175 171 159 149 172 154 164 151 141 125 121 118 115 115 121 116 112 109 106 104 96 87 79 66 48 16 352 345 340 330 322 317 317 320 324 325
226 107 73 81 100 118 143 169 178 163 96 68 116 85 120 107 117 123 125 117 111 117 120 115 113 110 106 97 80 55 36 13 355 331 329 326 321 313 310 312 318 325 329 336
19 57 63 39 30 117 78 27 128 107 124 140 145 153 132 126 122 127 127 121 121 123 119 118 112 103 92 70 40 355 343 335 323 324 321 319 317 314 315 325 330 336 349 355
349 50 63 93 32 111 258 231 107 91 52 103 109 130 121 112 98 97 113 126 123 125 124 120 110 90 49 1 339 328 324 321 320 318 314 312 310 312 325 344 358 3 16 356
36 64 71 107 82 163 69 135 130 121 50 128 120 118 118 116 98 65 109 122 122 123 119 110 89 24 346 333 330 331 328 328 329 328 327 314 310 332 360 30 24 24 12 357
54 44 53 98 96 174 44 112 112 88 89 116 123 129 136 141 126 137 122 122 119 119 115 89 21 350 334 332 338 332 334 343 346 345 337 321 341 342 28 33 35 8 7 3
81 50 93 111 100 92 354 340 331 149 157 136 139 141 131 90 115 140 136 122 116 112 90 16 2 357 354 350 349 0 10 9 9 355 337 323 326 340 66 30 352 349 356 351
116 161 80 83 106 112 352 329 115 137 117 124 120 125 109 114 126 129 126 118 109 84 62 47 30 30 26 25 31 34 21 14 1 348 331 318 320 328 148 10 316 336 348 344
64 0 117 40 58 37 52 81 95 116 113 117 120 121 128 128 125 126 118 109 97 83 70 63 53 52 49 41 32 24 17 6 356 345 336 314 315 327 162 271 314 316 334 352
54 13 85 127 20 62 67 81 98 115 112 115 123 129 130 122 122 115 108 98 87 76 67 62 60 55 45 39 31 22 11 7 1 356 347 337 320 288 188 288 295 313 352 345
13 27 101 82 113 77 56 74 103 108 113 113 115 117 117 117 112 109 102 93 82 74 66 59 52 48 43 38 32 20 14 16 13 6 359 339 274 193 192 208 226 292 324 332
356 172 104 88 90 104 92 94 109 113 109 113 115 111 106 105 106 102 90 82 75 67 60 55 46 43 38 36 29 22 16 17 14 9 8 359 332 196 196 184 233 270 294 319
Height
1414 1420 1409 1407 1419 1424 1427 1431 1434 1433 1430 1434 1443 1446 1441 1435 1439 1440 1440 1442 1444 1446 1448 1450 1452 1456 1461 1465 1468 1472 1474 1477 1480 1483 1485 1489 1491 1493 1497 1500 1501 1504 1505 1507
1415 1398 1403 1414 1421 1425 1428 1432 1434 1428 1428 1433 1435 1440 1436 1433 1434 1433 1433 1436 1438 1441 1444 1446 1450 1452 1456 1461 1465 1468 1471 1475 1478 1481 1484 1487 1488 1492 1494 1495 1498 1499 1502 1503
1395 1393 1402 1409 1415 1421 1422 1427 1432 1431 1430 1430 1430 1440 1433 1427 1426 1426 1427 1429 1433 1437 1439 1442 1445 1450 1453 1455 1460 1464 1468 1471 1475 1478 1482 1485 1488 1490 1490 1493 1494 1496 1498 1500
1392 1388 1393 1399 1404 1412 1424 1423 1425 1428 1438 1450 1432 1457 1433 1425 1425 1423 1422 1425 1427 1430 1435 1438 1441 1445 1449 1452 1455 1460 1464 1468 1472 1477 1480 1484 1488 1489 1489 1491 1492 1494 1493 1492
1379 1382 1389 1397 1396 1407 1415 1415 1422 1427 1437 1438 1440 1449 1437 1425 1423 1420 1420 1424 1425 1426 1429 1434 1437 1441 1445 1449 1454 1458 1462 1466 1470 1474 1478 1482 1485 1487 1487 1489 1488 1490 1489 1488
1377 1374 1382 1383 1393 1399 1402 1414 1422 1433 1444 1455 1444 1447 1441 1432 1435 1432 1425 1425 1422 1424 1426 1428 1433 1438 1443 1446 1451 1455 1459 1464 1469 1472 1475 1477 1481 1483 1484 1486 1487 1487 1489 1487
1373 1372 1371 1380 1391 1397 1397 1410 1441 1454 1457 1452 1435 1445 1435 1432 1431 1431 1429 1430 1426 1425 1425 1427 1429 1434 1440 1444 1449 1454 1459 1463 1467 1470 1473 1476 1477 1480 1482 1484 1486 1487 1485 1482
1370 1381 1373 1369 1376 1381 1393 1399 1428 1439 1450 1447 1433 1441 1434 1432 1430 1430 1431 1431 1426 1427 1428 1429 1430 1434 1439 1445 1450 1455 1460 1463 1468 1472 1473 1476 1478 1480 1482 1482 1482 1483 1483 1482
1362 1362 1361 1360 1366 1373 1388 1398 1399 1421 1422 1437 1440 1438 1434 1433 1432 1433 1434 1432 1431 1432 1433 1434 1436 1439 1444 1449 1454 1457 1460 1465 1472 1474 1476 1480 1481 1481 1481 1481 1481 1480 1481 1479
1352 1360 1353 1359 1363 1370 1373 1386 1406 1415 1429 1440 1437 1439 1438 1435 1434 1434 1436 1435 1436 1437 1438 1441 1444 1447 1450 1455 1458 1460 1463 1467 1471 1473 1477 1478 1479 1480 1481 1481 1481 1479 1477 1478
1349 1354 1361 1357 1364 1377 1380 1385 1394 1405 1418 1432 1441 1439 1428 1431 1433 1435 1438 1439 1439 1440 1444 1448 1451 1454 1458 1461 1464 1465 1469 1471 1474 1476 1479 1480 1479 1481 1481 1480 1481 1478 1477 1475
1352 1358 1373 1366 1369 1372 1374 1383 1394 1417 1418 1425 1429 1435 1427 1431 1435 1437 1441 1443 1445 1446 1449 1454 1458 1460 1463 1467 1470 1471 1474 1476 1478 1479 1480 1481 1481 1482 1481 1480 1480 1479 1476 1474
1353 1360 1367 1370 1375 1374 1381 1380 1383 1394 1406 1416 1428 1436 1430 1433 1437 1442 1442 1447 1450 1453 1456 1458 1462 1465 1467 1471 1473 1475 1478 1479 1480 1481 1481 1482 1481 1481 1481 1479 1478 1476 1474 1473
1353 1359 1359 1362 1357 1369 1378 1375 1378 1388 1410 1412 1416 1423 1428 1434 1438 1442 1448 1450 1455 1458 1460 1462 1465 1468 1470 1474 1475 1477 1480 1481 1482 1482 1482 1482 1480 1480 1477 1477 1476 1475 1473 1471
1355 1355 1353 1345 1348 1354 1364 1370 1376 1384 1390 1397 1412 1410 1419 1428 1436 1443 1449 1453 1457 1463 1465 1468 1468 1471 1473 1475 1477 1480 1481 1481 1481 1481 1481 1479 1477 1475 1475 1475 1474 1472 1469 1467
1352 1357 1352 1353 1349 1351 1361 1365 1369 1378 1391 1395 1405 1418 1424 1431 1438 1445 1451 1454 1460 1466 1467 1470 1471 1473 1474 1477 1479 1480 1480 1481 1480 1480 1478 1476 1474 1474 1474 1472 1470 1468 1465 1464
1352 1355 1364 1375 1361 1358 1376 1379 1375 1383 1387 1391 1404 1412 1421 1434 1441 1448 1454 1456 1462 1468 1470 1473 1474 1476 1477 1478 1479 1480 1481 1480 1479 1477 1475 1473 1472 1472 1471 1469 1468 1466 1465 1463
1361 1359 1368 1379 1372 1387 1380 1378 1378 1386 1396 1393 1398 1412 1424 1434 1445 1451 1459 1458 1465 1469 1473 1474 1475 1476 1478 1478 1479 1479 1478 1476 1475 1472 1472 1470 1470 1470 1468 1467 1466 1465 1463 1461
1365 1370 1373 1379 1388 1385 1382 1382 1381 1382 1408 1404 1403 1423 1431 1437 1443 1461 1464 1465 1467 1471 1474 1474 1476 1477 1478 1479 1478 1476 1475 1473 1471 1469 1467 1469 1468 1466 1465 1465 1465 1464 1463 1462
1372 1373 1376 1380 1382 1388 1386 1382 1380 1383 1410 1417 1419 1424 1429 1435 1447 1468 1468 1468 1470 1472 1475 1475 1476 1477 1477 1476 1475 1474 1472 1470 1469 1467 1468 1467 1466 1465 1465 1465 1465 1463 1462 1461
1378 1384 1381 1382 1387 1387 1385 1384 1382 1393 1415 1419 1425 1430 1433 1443 1451 1461 1467 1469 1471 1474 1476 1476 1475 1475 1474 1474 1472 1471 1470 1469 1467 1467 1468 1466 1465 1465 1464 1466 1464 1463 1462 1461
1381 1380 1383 1387 1384 1390 1394 1388 1389 1404 1410 1417 1427 1433 1437 1446 1455 1464 1467 1470 1472 1474 1474 1474 1475 1474 1473 1473 1473 1471 1468 1466 1466 1466 1465 1464 1463 1463 1464 1465 1464 1463 1462 1460
1383 1387 1393 1401 1407 1411 1405 1403 1402 1406 1408 1423 1428 1440 1439 1450 1458 1465 1469 1472 1474 1475 1475 1476 1474 1474 1475 1474 1472 1470 1467 1466 1466 1465 1464 1463 1463 1463 1464 1465 1465 1463 1462 1460
1392 1391 1398 1403 1419 1417 1413 1412 1411 1414 1420 1429 1433 1441 1449 1451 1461 1467 1470 1473 1475 1475 1475 1475 1475 1476 1475 1473 1472 1471 1469 1467 1465 1464 1463 1462 1463 1463 1464 1464 1464 1463 1461 1460
1399 1397 1406 1417 1423 1418 1422 1424 1422 1426 1431 1435 1446 1452 1455 1458 1464 1468 1472 1474 1474 1475 1476 1476 1476 1475 1474 1474 1472 1472 1470 1467 1465 1463 1462 1461 1461 1462 1463 1464 1463 1463 1461 1460
1404 1404 1403 1413 1420 1422 1434 1437 1439 1435 1440 1448 1452 1457 1462 1464 1467 1472 1473 1475 1476 1477 1478 1477 1477 1477 1476 1475 1474 1473 1471 1467 1465 1464 1462 1461 1461 1461 1462 1463 1462 1462 1461 1460